Weather History for Whiting Fld NAS, FL

Change the Weather History Date:

Tuesday, August 27, 2013

  Actual Average Record
Temperature  
Mean Temperature 76 °F -  
Max Temperature 88 °F 86 °F 99 °F (2011)
Min Temperature 64 °F 70 °F 64 °F (2013)
Cooling Degree Days 11    
Growing Degree Days 26 (Base 50)    
Moisture  
Dew Point 63 °F    
Average Humidity 67    
Maximum Humidity 87    
Minimum Humidity 43    
Precipitation  
Precipitation 0.00 in - - ()
Sea Level Pressure  
Sea Level Pressure 30.04 in    
Wind  
Wind Speed 3 mph (North)    
Max Wind Speed 6 mph    
Max Gust Speed -    
Visibility 10 miles    
Events      
Averages and records for this station are not official NWS values.
T = Trace of Precipitation, MM = Missing Value Source: NWS Daily Summary

Daily Weather History Graph

Daily Weather History Graph

Search for Another Location

Airport:

Trip Planner

Search our weather history database for the weather conditions in past years. The results will help you decide how hot, cold, wet, or windy it might be!

Date:

Astronomy

Aug. 27, 2013 Rise Set
Actual Time 6:21 AM CDT 7:16 PM CDT
Civil Twilight 5:57 AM CDT 7:41 PM CDT
Nautical Twilight 5:27 AM CDT 8:10 PM CDT
Astronomical Twilight 4:57 AM CDT 8:40 PM CDT
Moon 11:40 PM CDT (8/27) 12:49 PM CDT (8/27)
Length of Visible Light 13h 44m
Length of Day
12h 55m
Waning Gibbous, 57% of the Moon is Illuminated
Aug 27
Waning Gibbous
Aug 28
Last Quarter
Sep 5
New
Sep 12
First Quarter
Sep 19
Full

Hourly Weather History & Observations

Time (CDT) Temp. Heat Index Dew Point Humidity Pressure Visibility Wind Dir Wind Speed Gust Speed Precip Events Conditions
12:56 AM 70.0 °F - 61.0 °F 73% 30.08 in 10.0 mi NNE 3.5 mph - N/A   Partly Cloudy
1:56 AM 69.1 °F - 61.0 °F 75% 30.07 in 10.0 mi NNE 4.6 mph - N/A   Clear
2:56 AM 68.0 °F - 60.1 °F 76% 30.06 in 10.0 mi North 3.5 mph - N/A   Clear
3:56 AM 66.9 °F - 60.1 °F 79% 30.05 in 10.0 mi Calm Calm - N/A   Clear
4:56 AM 66.0 °F - 60.1 °F 81% 30.05 in 10.0 mi North 3.5 mph - N/A   Clear
5:56 AM 64.9 °F - 60.1 °F 84% 30.05 in 10.0 mi North 3.5 mph - N/A   Scattered Clouds
6:56 AM 66.0 °F - 60.1 °F 81% 30.07 in 10.0 mi North 3.5 mph - N/A   Scattered Clouds
7:56 AM 72.0 °F - 63.0 °F 73% 30.08 in 10.0 mi Calm Calm - N/A   Scattered Clouds
8:56 AM 75.0 °F - 64.0 °F 69% 30.09 in 10.0 mi NE 4.6 mph - N/A   Scattered Clouds
9:56 AM 81.0 °F 83.0 °F 66.0 °F 60% 30.08 in 10.0 mi East 5.8 mph - N/A   Scattered Clouds
10:56 AM 82.9 °F 83.7 °F 62.1 °F 49% 30.07 in 10.0 mi ENE 3.5 mph - N/A   Mostly Cloudy
11:56 AM 86.0 °F 86.8 °F 63.0 °F 46% 30.05 in 10.0 mi NNW 4.6 mph - N/A   Scattered Clouds
12:56 PM 84.0 °F 84.9 °F 63.0 °F 49% 30.04 in 10.0 mi Calm Calm - N/A   Mostly Cloudy
1:56 PM 84.0 °F 85.4 °F 64.0 °F 51% 30.03 in 10.0 mi North 4.6 mph - N/A   Mostly Cloudy
2:56 PM 86.0 °F 87.3 °F 64.0 °F 48% 30.01 in 10.0 mi Variable 3.5 mph - N/A   Mostly Cloudy
3:56 PM 88.0 °F 88.7 °F 63.0 °F 43% 30.01 in 10.0 mi North 4.6 mph - N/A   Scattered Clouds
4:56 PM 87.1 °F 87.8 °F 63.0 °F 44% 30.00 in 10.0 mi NW 5.8 mph - N/A   Scattered Clouds
5:56 PM 84.9 °F 86.1 °F 64.0 °F 49% 29.99 in 10.0 mi NW 4.6 mph - N/A   Scattered Clouds
6:56 PM 81.0 °F 83.8 °F 68.0 °F 65% 29.99 in 10.0 mi Calm Calm - N/A   Scattered Clouds
7:56 PM 75.0 °F - 66.9 °F 76% 30.00 in 10.0 mi NNW 3.5 mph - N/A   Scattered Clouds
8:56 PM 73.0 °F - 66.0 °F 79% 30.01 in 10.0 mi NW 3.5 mph - N/A   Scattered Clouds
9:56 PM 73.0 °F - 64.9 °F 76% 30.02 in 10.0 mi Calm Calm - N/A   Scattered Clouds
10:56 PM 70.0 °F - 64.9 °F 84% 30.03 in 10.0 mi Calm Calm - N/A   Scattered Clouds
11:56 PM 69.1 °F - 64.9 °F 87% 30.01 in 10.0 mi Calm Calm - N/A   Scattered Clouds